Retour au catalogue

STARLINK-33895

ActifCommunicationsVLEO
NORAD 63934·PAYLOAD·🇺🇸 United States

Lancé May 13, 2025 depuis Vandenberg Space Force Base

Loading…

Prochains Passages (prochaines 24 heures)

TLE

FraisSource: CelesTrak SupGP

Époque: Sep 14, 2026, 22:33 UTC

1 63934C 25098J   26257.94006944 -.00006110  00000+0 -21270-3 0  2578
2 63934  70.0001 155.4309 0003291 263.1052 217.9309 15.29559054    13

Suivez STARLINK-33895 en temps réel avec AllMySat

Download on the App Store